#timestamp,LO_Frequency,Hit,StdDev 
1542067215.7,286047000.9,N
1542067235.5,286046999.9,N
1542067255.4,286047002.4,N
1542067275.2,286047001.9,N
1542067295.0,286047001.4,N
1542067296.0,286047001.4,N
1542067315.8,286047002.4,N
1542067335.6,286047001.9,N
1542067355.5,286047003.3,N
1542067375.3,286047005.4,Y
1542067395.1,286047005.9,P
1542067415.9,286047004.2,N
1542067435.7,286047005.4,N
1542067455.6,286047007.3,Y
1542067475.4,286047002.3,P
1542067495.2,286047002.8,P
1542067515.1,286047001.3,N
1542067516.0,286047001.3,N
1542067535.8,286047004.2,Y
1542067555.6,286046999.4,P
1542067575.5,286046998.5,N
1542067595.3,286047000.3,N
1542067615.2,286046999.0,N
1542067635.9,286046996.9,N
1542067655.7,286046998.0,N
1542067675.6,286046996.7,N
1542067695.4,286046999.1,N
1542067715.2,286046999.6,N
1542067735.1,286046998.5,N
1542067736.0,286046998.5,N
1542067755.8,286046998.5,N
1542067775.7,286046998.4,N
1542067795.5,286046997.2,N
1542067815.3,286046996.9,N
1542067835.2,286046996.7,N
1542067855.0,286046997.2,N
1542067855.9,286046997.2,N
1542067875.7,286046997.1,N
1542067895.6,286046997.7,N
1542067915.4,286046995.8,Y
1542067935.3,286046997.2,P
1542067955.1,286046999.5,N
1542067975.8,286046998.5,N
1542067995.7,286046998.7,N
1542068015.5,286047000.7,N
1542068035.4,286046998.9,N
1542068055.2,286046996.7,Y
1542068075.0,286046999.6,P
1542068075.9,286046999.6,N
1542068095.8,286046996.8,P
1542068115.6,286046997.1,N
1542068135.4,286046997.1,N
1542068155.3,286046995.0,Y
1542068175.1,286047001.2,P
1542068195.9,286046998.1,N
1542068215.7,286046999.3,N
1542068235.5,286046996.9,N
1542068255.4,286046996.5,N
1542068275.2,286046999.4,N
1542068295.0,286046999.6,N
1542068295.9,286046999.6,N
1542068315.8,286046998.0,N
1542068335.6,286046995.0,Y
1542068355.5,286046996.7,P
1542068375.3,286046999.4,N
1542068395.1,286046995.5,P
1542068415.9,286046997.8,N
1542068435.7,286046995.2,Y
1542068455.6,286046999.3,P
1542068475.4,286046997.4,P
1542068495.2,286046997.1,P
1542068515.1,286047000.7,N
1542068516.0,286047000.7,N
1542068535.8,286047000.8,N
1542068555.6,286047001.0,N
1542068575.5,286047001.2,N
1542068595.3,286047001.0,N
1542068615.2,286047000.1,N
1542068635.9,286047002.9,N
1542068655.7,286047005.1,N
1542068675.6,286047006.6,Y
1542068695.4,286047007.1,P
1542068715.3,286047006.0,N
1542068735.1,286047003.0,N
1542068736.0,286047003.0,N
1542068755.8,286047001.6,N
1542068775.7,286047002.8,N
1542068795.5,286047002.7,N
1542068815.3,286047004.3,N
1542068835.2,286047003.5,N
1542068855.0,286047001.7,N
1542068855.9,286047001.7,N
1542068875.8,286047004.3,N
1542068895.6,286047004.3,N
1542068915.4,286047001.6,N
1542068935.3,286047002.2,N
1542068955.1,286047002.7,N
1542068975.9,286047002.7,N
1542068995.7,286047002.8,N
1542069015.5,286047000.3,N
1542069035.4,286047000.4,N
1542069055.2,286047002.7,N
1542069075.0,286047002.8,N
1542069075.9,286047002.8,N
1542069095.8,286046999.8,N
1542069115.6,286047000.2,N
1542069135.5,286047002.2,N
1542069155.3,286047002.4,N
1542069175.1,286047003.8,N
1542069195.9,286047003.2,N
1542069215.7,286047003.8,N
1542069235.6,286047001.7,N
1542069255.4,286047004.1,Y
1542069275.2,286047002.8,P
1542069295.1,286047001.5,P
1542069296.0,286047001.5,N
1542069315.8,286047002.4,Y
1542069335.7,286047001.2,P
1542069355.5,286046998.4,P
1542069375.3,286047000.8,N
1542069395.2,286046997.7,N
1542069415.0,286046997.1,N
1542069415.9,286046997.1,N
1542069435.7,286046996.5,N
1542069455.6,286046996.9,N
1542069475.4,286047001.1,N
1542069495.3,286046999.5,N
1542069515.1,286046999.0,N
1542069516.0,286046999.0,N
1542069535.8,286047001.9,N
1542069555.7,286047001.6,N
1542069575.5,286047002.3,N
1542069595.4,286047005.6,N
1542069615.2,286047002.9,N
1542069635.0,286047004.0,N
1542069635.9,286047004.0,N
1542069655.8,286047003.0,N
1542069675.6,286047003.3,N
1542069695.4,286047003.4,N
1542069715.3,286047005.4,N
1542069735.1,286047005.9,N
1542069755.9,286047003.0,N
1542069775.7,286047001.8,N
1542069795.5,286047001.8,N
1542069815.4,286047003.6,N
1542069835.2,286047001.3,N
1542069855.0,286047004.0,N
1542069856.0,286047004.0,N
1542069875.8,286047002.3,N
1542069895.6,286047002.2,N
1542069915.5,286047000.5,N
1542069935.3,286046998.9,N
1542069955.1,286047001.1,N
1542069975.9,286047001.9,N
1542069995.7,286047001.9,N
1542070015.6,286047001.3,N
1542070035.4,286047001.9,N
1542070055.2,286047002.5,N
1542070075.1,286047001.5,N
1542070076.0,286047001.5,N
1542070095.8,286047001.4,N
1542070115.7,286047001.3,N
1542070135.5,286047001.8,N
1542070155.3,286047004.0,N
1542070175.2,286047006.0,Y
1542070195.0,286047001.3,P
1542070195.9,286047001.3,N
1542070215.7,286047001.8,P
1542070235.6,286047001.5,Y
1542070255.4,286047000.0,P
1542070275.3,286046998.9,N
1542070295.1,286046999.2,N
1542070315.8,286046999.5,N
1542070335.7,286046997.2,N
1542070355.5,286046995.3,Y
1542070375.4,286046999.2,P
1542070395.2,286046999.0,P
1542070415.0,286046998.5,P
1542070415.9,286046998.5,Y
1542070435.8,286047002.8,P
1542070455.6,286047000.2,N
1542070475.5,286047000.5,N
1542070495.3,286046999.8,N
1542070515.1,286046999.8,N
1542070535.9,286047004.1,Y
1542070555.7,286047005.1,P
1542070575.6,286047007.0,N
1542070595.4,286047007.2,N
1542070615.2,286047006.8,N
1542070635.1,286047007.4,N
1542070636.0,286047007.4,N
1542070655.8,286047004.6,N
1542070675.6,286047005.7,N
1542070695.5,286047005.9,N
1542070715.3,286047005.5,N
1542070735.2,286047006.7,Y
1542070755.0,286047001.9,P
1542070755.9,286047001.9,N
1542070775.7,286047002.4,N
1542070795.6,286047002.8,N
